DMSP 5D-2 F13 DEB, 40465

Orbit data source: Space-Track

DMSP 5D-2 F13 DEB, 40465 is space debris in SSO originally from a launch on Fri, 24 Mar 1995 UTC launched from the Air Force Western Test Range (AFWTR). Debris objects in space refer to the collection of defunct objects orbiting the Earth. Examples of debris include non-operational satellites, rocket bodies, and fragments generated from explosions, collisions, or faulty payload assembly.

Loading next visibility...
Identifier
40465, 1995-015BH
Orbit
SSO
Country
Flag of USUS
Related business
Manufacturer
Unknown
Mission
Spacecraft
Bus & Motor
Unknown
Mass
Unknown
Launch date (UTC)
1995-03-24 (31 years ago)
Launch vehicle
Unknown
Launch site
Air Force Western Test Range (AFWTR)
Object type
Payload
Rocket body
Debris
Shape & HBR
Unknown shape, 0.1 m
Radar Cross Section
Small (<0.1 m²)

Expand to show TLE details & history
Last TLE update: 8 hours ago

TLE from 8 hours ago
0 DMSP 5D-2 F13 DEB
1 40465U 95015BH  25342.51738573  .00006663  00000-0  28950-2 0  9991
2 40465  98.9735   1.5682 0039458 262.6005  97.0688 14.24031093553136
Epoch: 2025-12-08T12:25Z
TLE epoch observation values (Epoch: 2025-12-08T12:25:02.127Z)
Latitude
-0.00001°
Longitude
97.79406°
Altitude
818.266 km
Speed
7.442 km/s
True Right ascension
00h 06m 16s
True Declination
0° 00' 00"
Sunlit
Object was in daylight at epoch
Visualization orbit readout
Latitude
Unknown
Longitude
Unknown
Altitude
Unknown
Speed
Unknown
Apparent Right ascension
Unknown
Apparent Declination
Unknown
Sunlit
N/A
Visualization observer readout
Local Sidereal Time
18:33:40
Azimuth
Unknown
Elevation
Unknown
Doppler factor
Unknown
Orbital elements
Apogee altitude
837.277 km
Perigee altitude
780.559 km
Semi-major axis
7,187.055 km
Eccentricity
0.00395
Inclination
98.9735°
RAAN
1.5682°
Arg. of periapsis
262.6005°
True anomaly
97.51724°
Mean anomaly
97.0688°
Eccentric anomaly
97.29305°
Mean motion
3.56219 °/min
Orbital period
101.06 mins
BSTAR
0.002895

Documentation

Showing up to 5 results
|